Dewpoint
68 70 71 72 72 72 72 72 72 72 73 73 72 72 72 72 72 72 72 72 72 71 70 70 70 70 69 69 69 69 69 69 69 69 69 69 69 68 68 70 69 68 70
69 70 71 71 72 72 72 72 72 72 73 72 72 72 72 72 71 71 71 71 71 70 71 71 70 70 70 70 70 70 69 69 69 69 68 68 67 67 68 69 69 69 70
69 70 71 71 71 71 72 72 72 72 71 71 71 72 72 71 70 70 70 70 69 68 68 69 68 68 69 68 69 69 69 69 69 68 68 65 66 68 68 69 69 70 69
68 69 70 71 71 72 72 72 72 71 71 72 71 71 69 70 69 68 68 68 67 67 67 67 66 66 66 66 67 67 67 67 67 67 65 65 64 68 68 69 69 69 68
67 68 69 70 70 71 71 71 72 72 71 71 71 70 69 68 67 67 66 66 66 65 65 65 65 64 64 64 65 65 65 66 66 64 66 67 65 68 68 67 69 69 68
66 67 68 69 69 70 70 70 71 71 70 70 69 68 67 66 65 65 64 64 63 63 62 61 60 60 61 62 62 62 62 62 64 64 66 67 66 69 68 68 69 69 69
64 66 67 68 69 69 69 69 69 69 69 69 68 66 66 64 64 63 62 61 60 59 56 55 55 55 55 56 57 57 56 57 57 64 65 66 68 68 68 69 69 69 69
64 64 65 67 67 67 67 68 68 67 67 66 66 65 64 62 60 59 58 57 55 54 52 52 52 53 53 54 55 56 56 57 52 63 64 65 66 67 67 67 67 68 68
62 62 62 63 65 65 65 66 66 65 65 64 63 62 60 58 55 54 53 53 52 52 52 52 53 54 54 54 55 58 59 58 56 59 59 61 63 63 64 64 65 66 66
60 59 59 58 59 59 61 63 63 63 62 61 59 58 57 57 53 52 52 52 50 50 51 53 55 57 58 56 57 56 54 55 52 54 55 58 60 61 62 62 64 65 66
59 57 56 55 55 56 58 61 62 61 59 58 58 58 55 50 48 47 50 50 49 51 52 53 56 56 53 54 56 55 53 51 53 54 55 60 59 60 61 62 63 63 64
58 56 55 53 53 53 53 54 54 55 53 53 52 54 53 47 47 48 49 51 52 52 53 54 52 51 47 43 44 48 46 51 52 52 54 58 57 58 58 58 60 61 62
58 55 56 52 50 48 50 52 52 55 52 49 50 49 49 48 47 47 46 44 44 47 43 44 42 42 42 42 43 42 45 50 51 51 53 56 54 55 55 56 56 56 58
58 57 57 53 49 50 51 51 51 50 48 47 47 49 47 47 45 45 44 43 43 43 42 42 42 41 41 40 42 41 44 50 51 50 51 54 52 53 54 57 59 58 59
56 55 55 54 51 49 50 49 49 48 47 47 46 47 46 46 45 44 43 43 43 42 42 41 41 41 40 39 40 41 45 50 49 49 49 52 50 50 53 53 53 57 57
54 52 52 50 49 48 48 47 47 47 46 46 45 45 46 45 44 43 42 42 43 42 41 41 41 41 39 39 37 38 45 49 48 47 48 48 51 49 50 51 52 55 53
51 52 50 49 49 47 46 46 46 46 46 44 43 43 43 44 44 43 42 42 43 41 41 41 41 41 39 37 36 36 44 46 46 46 46 45 46 49 48 48 51 52 51
51 50 49 49 48 47 46 47 46 46 45 44 43 43 43 44 44 42 42 43 42 41 41 41 41 40 39 37 35 37 43 41 42 42 41 41 42 43 46 48 50 49 48
50 49 49 48 48 46 46 46 45 45 44 44 43 42 42 43 43 42 41 42 41 40 40 40 39 39 37 35 36 38 41 39 37 37 38 37 37 36 37 46 46 46 45
48 49 48 48 47 46 45 44 43 43 43 42 42 41 41 41 43 41 41 41 40 39 39 38 37 39 37 36 35 36 41 39 38 37 37 36 36 36 36 37 37 39 42
47 48 48 47 46 45 43 42 42 40 40 41 40 40 40 40 41 39 39 40 39 38 37 37 38 37 36 37 34 39 41 38 37 37 37 35 35 34 35 36 36 36 36
47 48 48 46 45 44 42 42 42 40 40 39 39 38 39 39 40 39 39 39 38 37 36 36 36 35 35 35 34 36 38 34 37 36 37 35 34 34 34 35 34 34 35
47 48 48 46 45 44 44 43 41 40 39 38 37 36 38 39 40 39 39 38 37 37 36 35 35 34 33 34 34 34 33 32 34 34 33 36 33 31 30 34 33 33 34
47 49 48 45 45 45 44 41 39 37 37 37 37 36 37 39 39 39 38 37 36 36 35 35 34 34 32 31 32 32 30 32 30 31 31 30 31 27 28 31 33 32 33
49 49 49 46 45 43 42 41 39 38 39 38 37 35 35 36 38 37 35 35 35 35 33 32 32 32 32 29 29 29 28 28 28 30 26 25 30 31 29 29 31 29 28
50 50 48 46 43 42 41 40 39 38 37 36 35 34 35 35 37 34 33 33 34 34 32 31 30 30 30 29 29 29 28 26 25 26 25 24 26 28 28 28 29 29 27
Lifted_Index
-4 -4 -4 -4 -4 -5 -5 -5 -5 -6 -6 -5 -5 -6 -6 -6 -6 -6 -5 -5 -5 -5 -5 -5 -4 -4 -4 -3 -3 -3 -3 -2 -2 -2 -2 -3 -3 -3 -3 -3 -3 -3 -3
-4 -4 -4 -5 -5 -5 -5 -5 -5 -6 -5 -5 -5 -6 -6 -6 -6 -5 -5 -5 -5 -5 -5 -5 -4 -4 -4 -3 -3 -3 -3 -3 -2 -2 -2 -2 -2 -3 -3 -3 -2 -3 -3
-4 -4 -4 -5 -5 -5 -5 -5 -6 -6 -5 -5 -5 -5 -5 -5 -5 -5 -5 -4 -4 -4 -4 -4 -4 -3 -3 -3 -3 -3 -3 -2 -2 -2 -2 -2 -2 -3 -3 -3 -3 -3 -2
-3 -4 -4 -4 -5 -5 -5 -6 -6 -6 -5 -5 -5 -5 -5 -5 -4 -4 -4 -3 -3 -3 -2 -2 -2 -2 -2 -2 -2 -2 -2 -2 -1 -2 -2 -2 -2 -3 -3 -3 -3 -3 -3
-3 -3 -3 -4 -4 -5 -5 -6 -6 -6 -5 -5 -5 -5 -4 -4 -4 -3 -3 -3 -2 -2 -1 -1 -0 -0 -0 -0 -0 -0 -1 -1 -1 -1 -2 -3 -3 -3 -3 -3 -3 -3 -3
-2 -2 -3 -3 -4 -4 -5 -5 -5 -5 -4 -4 -4 -4 -3 -3 -3 -3 -3 -2 -1 0 1 2 3 3 3 2 2 2 2 1 -0 -1 -2 -3 -3 -3 -3 -3 -3 -3 -3
-2 -2 -2 -3 -3 -4 -4 -4 -4 -4 -3 -3 -2 -2 -2 -2 -2 -2 -1 0 2 3 4 5 6 6 6 6 5 6 5 4 2 -0 -2 -2 -3 -3 -3 -3 -3 -3 -3
-1 -1 -2 -2 -2 -3 -3 -3 -3 -2 -2 -2 -1 -1 -1 -1 -0 1 3 4 5 6 7 7 7 7 7 7 7 7 7 6 4 1 -1 -1 -2 -2 -2 -2 -2 -2 -2
-1 -1 -1 -2 -2 -2 -2 -2 -2 -2 -1 -1 -1 -0 0 2 3 5 6 7 8 8 8 8 8 7 7 8 8 8 7 6 4 2 1 1 0 0 -0 -1 -1 -1 -2
-1 -1 -1 -1 -1 -2 -2 -2 -2 -2 -1 -1 -0 1 3 6 8 9 9 9 9 9 9 8 8 8 8 9 9 9 8 7 5 4 3 3 3 2 2 1 0 -0 -1
-0 -1 -1 -1 -2 -2 -2 -2 -2 -1 -1 0 2 4 6 9 10 10 10 10 9 9 9 8 9 9 10 10 10 10 9 8 8 7 6 5 4 4 3 2 2 1 0
-0 -1 -1 -2 -2 -2 -2 -2 -1 -0 1 3 5 7 9 10 10 11 10 10 10 10 10 10 10 11 11 11 11 11 10 9 9 8 7 7 6 6 5 5 4 3 2
-1 -1 -1 -1 -1 -1 0 1 1 3 5 7 8 9 9 10 10 10 11 11 11 11 11 11 11 12 12 12 12 11 10 10 10 10 9 8 8 8 7 6 5 5 4
-1 -1 -1 -1 0 1 3 4 5 6 8 8 9 9 9 10 10 10 11 11 11 11 11 11 12 12 12 12 12 11 10 10 10 10 10 10 10 9 9 8 7 6 6
-1 -1 -1 0 1 2 4 6 7 8 8 9 9 9 9 9 10 10 10 11 11 11 11 11 12 12 12 12 12 11 10 10 10 10 11 11 11 11 10 9 8 8 7
-1 -1 -0 1 2 3 5 6 7 7 8 9 9 9 10 10 10 10 10 10 10 11 11 11 11 12 12 12 11 11 10 10 10 11 11 12 12 11 11 11 10 10 10
-0 -0 0 1 3 4 5 6 6 7 8 9 10 10 10 10 10 10 10 10 10 11 11 11 11 11 11 12 11 10 10 10 10 11 11 12 12 12 12 12 11 11 11
-1 -1 -0 1 2 4 6 6 7 7 8 9 10 10 11 11 10 10 10 10 10 11 11 11 11 11 11 12 11 10 10 10 10 10 11 12 13 13 13 13 12 12 13
-1 -1 -1 1 2 4 6 7 7 8 9 9 10 10 11 11 11 10 10 10 10 10 11 11 11 11 11 12 11 10 9 10 10 10 11 12 13 14 14 14 14 14 14
-1 -1 0 1 2 4 6 7 8 8 9 9 10 10 11 11 11 11 10 10 10 10 11 11 11 11 11 11 11 9 9 9 10 10 11 12 13 14 14 15 15 15 16
-1 -0 0 1 2 4 6 7 8 8 8 9 10 10 11 11 11 11 10 10 10 10 11 11 11 11 11 11 10 9 9 9 10 11 12 12 13 13 14 15 16 16 17
-2 -1 -0 1 2 4 5 7 8 8 9 9 9 10 11 11 11 10 10 10 10 10 11 11 11 11 10 11 10 9 8 9 10 11 12 12 13 13 13 14 15 17 17
-3 -2 -1 0 2 3 5 7 7 8 8 8 9 10 10 11 11 11 11 11 11 11 11 12 12 11 11 11 10 9 8 8 9 11 12 12 12 12 12 13 15 16 17
-3 -2 -1 0 2 3 5 6 7 7 7 7 8 9 10 10 11 11 11 12 12 12 12 12 12 12 11 11 11 10 9 8 9 10 11 11 12 12 13 14 15 16 17
-2 -1 0 1 2 3 4 5 6 6 6 6 7 8 8 9 10 11 11 12 12 12 12 12 13 13 13 12 12 12 11 9 9 9 9 10 11 12 13 14 15 16 17
-1 -0 1 2 2 3 4 4 5 5 5 6 6 7 7 9 10 10 11 12 12 12 12 12 13 13 13 13 13 12 11 10 9 9 9 10 11 12 14 15 15 16 17